Tracking 29892 objects as of 21-Nov-2024
HD Live streaming from Space Station
objects crossing your sky now

STARLINK-31879

Track STARLINK-31879 now!
10-day predictions
STARLINK-31879 is classified as:


NORAD ID: 59937
Int'l Code: 2024-106R
Perigee: 450.2 km
Apogee: 452.2 km
Inclination: 43.0 °
Period: 93.5 minutes
Semi major axis: 6822 km
RCS: Unknown
Launch date: June 1, 2024
Source: United States (US)
Launch site: AIR FORCE EASTERN TEST RANGE (AFETR)
Your satellite tracking list
Your tracking list is empty




NASA's NSSDC Master Catalog

Two Line Element Set (TLE):
1 59937U 24106R   24325.57126120 -.00000789  00000-0 -11635-4 0  9992
2 59937  42.9997 142.9753 0001407 266.8287  93.2408 15.40695345 27914
Source of the keplerian elements: AFSPC